MOLNIYA 3-50

Last updated on Nov. 14, 2019, 4:22 a.m. UTC

1 25847U 99036A   19317.51070933  .00000138  00000-0 -32959-2 0  9995
2 25847  62.1577 124.4987 7272783 273.3731  13.7546  2.00578345149119
UTC
Height (km)
Latitude
Longitude
Inclination
Orbital Period
UTC large
Height (km)
Speed (km/s)
/
Latitude / Longitude
Inclination (degrees)
Orbital Period (minutes)
Azimuth
Elevation
Range (km)
Doppler Factor
iOS Compass Heading
iOS Angle

Next 30 passes for location: Hong Kong

Rise time Rise Azimuth (degrees) Set time Set Azimuth (degrees) Duration Max altitude (degrees)

No matching passes for this satellites